#timestamp,LO_Frequency,Hit,StdDev 
1593450015.7,286047001.2,N
1593450035.5,286047000.7,N
1593450055.3,286047000.7,N
1593450075.2,286047001.1,N
1593450095.0,286046999.1,N
1593450095.9,286046999.1,N
1593450115.8,286046998.8,N
1593450135.6,286046999.3,N
1593450155.4,286046998.4,N
1593450175.3,286047001.1,N
1593450195.1,286046998.3,N
1593450215.8,286046998.4,N
1593450235.7,286046998.2,N
1593450255.5,286046999.0,N
1593450275.4,286046998.4,N
1593450295.2,286047000.7,N
1593450315.0,286047001.2,N
1593450315.9,286047001.2,N
1593450335.8,286046998.9,N
1593450355.6,286046998.2,N
1593450375.5,286047000.2,N
1593450395.3,286047000.7,N
1593450415.1,286046999.4,N
1593450435.9,286046998.8,N
1593450455.7,286046998.9,N
1593450475.5,286046999.4,N
1593450495.4,286046998.8,N
1593450515.2,286046998.5,N
1593450535.0,286046998.6,N
1593450536.0,286046998.6,N
1593450555.8,286046998.7,N
1593450575.6,286047000.7,N
1593450595.5,286047000.3,N
1593450615.3,286047001.1,N
1593450635.1,286046999.0,N
1593450655.9,286046999.0,N
1593450675.7,286046997.4,N
1593450695.5,286046996.6,Y
1593450715.4,286047000.7,P
1593450735.2,286046998.7,N
1593450755.1,286047000.8,N
1593450756.0,286047000.8,N
1593450775.8,286047000.2,N
1593450795.6,286047000.7,N
1593450815.5,286047000.7,N
1593450835.3,286047000.9,N
1593450855.1,286046998.1,N
1593450875.9,286047000.6,N
1593450895.7,286046998.2,N
1593450915.6,286046998.1,N
1593450935.4,286047001.0,N
1593450955.2,286046998.1,N
1593450975.1,286047000.9,N
1593450976.0,286047000.9,N
1593450995.8,286046999.8,N
1593451015.6,286047000.4,N
1593451035.5,286047000.6,N
1593451055.3,286047000.7,N
1593451075.2,286047001.0,N
1593451095.9,286047001.2,N
1593451115.7,286047000.7,N
1593451135.6,286047001.2,N
1593451155.4,286046999.8,N
1593451175.2,286047001.5,N
1593451195.1,286047000.2,N
1593451196.0,286047000.2,N
1593451215.8,286047000.7,N
1593451235.6,286046998.3,N
1593451255.5,286047000.1,N
1593451275.3,286047000.0,N
1593451295.2,286047000.6,N
1593451315.9,286047000.0,N
1593451335.7,286046998.1,N
1593451355.6,286046998.8,N
1593451375.4,286046998.9,N
1593451395.2,286046999.0,N
1593451415.1,286046999.3,N
1593451416.0,286046999.3,N
1593451435.8,286046999.8,N
1593451455.7,286047000.5,N
1593451475.5,286047000.0,N
1593451495.3,286047000.5,N
1593451515.2,286047000.8,N
1593451535.0,286046999.0,N
1593451535.9,286046999.0,N
1593451555.8,286046996.5,Y
1593451575.6,286046999.5,P
1593451595.4,286046997.0,P
1593451615.3,286046997.8,N
1593451635.1,286046997.5,N
1593451655.8,286046999.6,N
1593451675.7,286046999.4,N
1593451695.5,286046999.4,N
1593451715.4,286046999.4,N
1593451735.2,286046999.6,N
1593451755.0,286046999.2,N
1593451755.9,286046999.2,N
1593451775.8,286046999.6,N
1593451795.6,286046999.5,N
1593451815.4,286046999.0,N
1593451835.3,286046998.2,N
1593451855.1,286046998.6,N
1593451875.9,286047001.2,N
1593451895.7,286046998.8,N
1593451915.5,286047000.0,N
1593451935.4,286047000.8,N
1593451955.2,286047000.2,N
1593451975.0,286047000.8,N
1593451976.0,286047000.8,N
1593451995.8,286047001.1,N
1593452015.6,286047000.3,N
1593452035.5,286047002.7,N
1593452055.3,286047002.8,N
1593452075.1,286047000.0,N
1593452095.9,286047001.1,N
1593452115.7,286047000.0,N
1593452135.5,286047000.9,N
1593452155.4,286047000.8,N
1593452175.2,286047000.7,N
1593452195.1,286047000.3,N
1593452196.0,286047000.3,N
1593452215.8,286047000.0,N
1593452235.6,286047000.6,N
1593452255.5,286047002.2,N
1593452275.3,286047002.3,N
1593452295.1,286047002.5,N
1593452315.9,286047000.4,N
1593452335.7,286046999.8,N
1593452355.6,286046999.7,N
1593452375.4,286047002.1,N
1593452395.2,286047002.3,N
1593452415.1,286047002.6,N
1593452416.0,286047002.6,N
1593452435.8,286047002.6,N
1593452455.6,286047002.4,N
1593452475.5,286047000.2,N
1593452495.3,286047000.1,N
1593452515.2,286047000.4,N
1593452535.9,286047001.2,N
1593452555.7,286047001.0,N
1593452575.6,286047000.6,N
1593452595.4,286047000.0,N
1593452615.3,286046999.7,N
1593452635.1,286047002.1,N
1593452636.0,286047002.1,N
1593452655.8,286047001.6,N
1593452675.7,286047002.1,N
1593452695.5,286046999.7,N
1593452715.3,286047000.1,N
1593452735.2,286047002.6,N
1593452755.0,286047002.7,N
1593452755.9,286047002.7,N
1593452775.8,286047001.7,N
1593452795.6,286047000.1,N
1593452815.4,286047002.3,N
1593452835.3,286047001.3,N
1593452855.1,286047003.9,Y
1593452875.9,286047002.2,P
1593452895.7,286047000.7,N
1593452915.5,286046998.9,N
1593452935.4,286046996.9,N
1593452955.2,286046999.6,N
1593452975.0,286046999.5,N
1593452976.0,286046999.5,N
1593452995.8,286046998.4,N
1593453015.6,286047001.1,N
1593453035.5,286046998.6,N
1593453055.3,286046999.4,N
1593453075.1,286046998.8,N
1593453095.9,286046998.6,N
1593453115.7,286046998.3,N
1593453135.6,286047001.2,N
1593453155.4,286046999.9,N
1593453175.2,286047000.3,N
1593453195.1,286047000.5,N
1593453196.0,286047000.5,N
1593453215.8,286047001.0,N
1593453235.6,286047001.0,N
1593453255.5,286046999.9,N
1593453275.3,286047002.7,N
1593453295.2,286047002.4,N
1593453315.9,286047002.8,N
1593453335.7,286047001.9,N
1593453355.6,286047001.9,N
1593453375.4,286047002.2,N
1593453395.2,286047001.3,N
1593453415.1,286047001.5,N
1593453416.0,286047001.5,N
1593453435.8,286047004.3,N
1593453455.7,286047001.3,N
1593453475.5,286047002.0,N
1593453495.3,286047002.5,N
1593453515.2,286047004.0,N
1593453535.0,286047004.1,N
1593453535.9,286047004.1,N
1593453555.7,286047001.3,N
1593453575.6,286047001.3,N
1593453595.4,286047004.0,N
